Wind_Speed
27 26 26 22 24 23 23 27 31 32 28 33 36 39 36 33 35 27 23 26 29 31 30 31 32 36 39 41 43 44 44 45 44 44 43 42 41 42 47 51 57 51 45 45
24 26 22 25 23 29 25 29 36 33 32 35 40 47 43 38 26 22 23 24 23 25 27 29 31 34 38 41 43 44 45 46 46 46 46 46 46 48 53 55 58 52 47 47
24 23 26 28 31 30 27 33 35 33 32 36 43 46 25 33 32 14 17 22 25 24 25 30 32 34 37 37 41 45 47 48 48 46 46 47 49 53 58 61 59 51 50 50
22 28 30 30 31 29 32 33 29 31 30 19 27 19 34 36 9 14 17 26 28 22 25 30 31 33 35 38 41 45 46 47 47 47 48 49 53 58 60 65 59 52 51 51
28 29 28 30 33 31 35 31 31 31 31 38 36 20 24 16 15 16 16 28 26 20 23 28 30 32 35 38 40 43 45 46 46 47 48 51 53 60 62 66 58 55 52 52
35 37 37 35 34 33 33 33 32 30 26 9 28 17 11 16 14 32 16 33 22 23 26 26 28 31 34 37 40 43 44 46 46 46 48 53 57 61 65 61 58 55 54 54
39 42 41 39 38 37 36 26 6 5 2 10 14 15 40 37 30 26 32 22 23 22 25 25 25 29 31 34 39 42 44 45 46 46 50 54 60 62 64 60 57 56 56 56
29 28 26 30 28 29 18 24 11 8 4 12 19 18 33 17 28 29 29 24 22 29 26 26 26 29 32 34 37 38 41 44 45 49 51 55 58 62 61 57 56 57 58 60
26 31 27 24 25 23 20 25 27 24 24 10 17 43 42 39 33 27 21 29 34 31 33 36 32 33 34 33 35 38 40 43 46 50 53 57 60 60 58 55 55 57 58 60
35 31 39 37 32 28 33 22 10 14 3 6 21 42 34 38 24 17 27 33 42 41 47 40 39 40 33 34 36 38 42 45 48 50 54 57 59 58 55 54 55 57 59 61
32 36 36 38 31 40 33 34 27 20 19 6 4 23 19 39 39 29 35 43 51 59 57 45 48 45 38 36 37 40 44 46 49 51 55 57 58 55 53 54 55 58 60 61
31 22 34 50 45 31 27 38 38 27 14 19 10 51 29 19 34 36 50 60 63 61 53 52 47 44 38 36 37 41 45 47 50 53 55 56 55 52 52 54 55 58 61 60
30 24 32 36 35 28 37 46 51 51 45 36 12 50 35 27 44 63 66 66 59 54 51 50 47 45 39 37 38 41 45 47 51 53 54 53 50 49 50 53 56 59 61 60
44 44 41 36 34 16 24 36 43 53 41 40 63 62 82 67 69 64 64 58 57 56 51 50 51 47 42 40 39 42 46 48 51 52 52 48 46 48 50 54 57 59 58 57
42 51 55 57 63 53 52 53 55 53 60 42 71 56 86 71 67 67 64 59 54 47 44 43 41 39 40 40 40 43 47 48 49 49 46 44 45 47 51 54 57 57 54 54
52 55 53 59 64 56 51 69 64 72 73 64 67 79 80 72 68 62 46 50 47 44 43 43 44 41 38 37 39 44 45 45 45 44 42 43 44 48 52 54 55 54 52 52
49 48 49 49 47 35 31 78 68 75 69 67 64 87 70 63 58 50 50 44 43 44 44 44 43 39 36 36 39 42 42 41 41 38 39 41 45 49 52 54 55 53 52 53
53 50 46 42 33 16 74 62 51 49 65 62 62 67 66 61 52 50 43 35 34 36 41 41 39 38 37 35 38 39 39 38 36 34 36 40 45 50 54 55 54 53 53 54
65 59 43 36 36 49 50 62 46 42 59 71 54 66 62 47 45 37 31 28 31 33 32 35 37 39 37 36 36 36 35 32 30 32 35 41 46 52 56 57 56 55 54 53
50 65 56 43 24 23 75 71 54 47 56 79 58 56 46 36 38 35 29 37 40 38 36 34 35 36 35 34 34 32 29 26 27 30 34 41 46 54 58 58 56 55 55 53
33 45 55 58 48 49 77 63 42 28 83 60 51 44 33 40 38 39 45 49 46 43 40 36 35 34 32 32 30 27 25 24 26 28 34 39 46 54 57 55 56 57 53 51
50 27 31 33 34 29 63 49 54 64 55 60 58 57 52 44 42 44 50 51 49 46 44 38 31 31 30 29 26 24 22 23 25 26 32 38 44 53 54 54 55 56 53 52
52 62 59 42 35 42 41 50 55 52 54 54 56 48 51 46 49 51 55 55 53 48 46 37 32 30 29 26 24 22 21 22 23 25 30 36 42 49 52 51 52 55 55 53
56 58 61 60 63 66 60 62 60 63 63 55 57 57 58 60 56 57 55 53 52 49 47 33 32 28 25 24 23 22 21 20 21 24 29 35 41 46 51 51 52 52 55 53
64 58 59 68 73 70 68 70 62 69 69 64 56 61 64 62 62 51 52 54 49 49 39 34 29 25 24 25 23 21 19 19 21 23 28 33 40 47 49 49 51 51 51 52
61 64 63 70 75 75 73 71 65 67 66 60 53 54 53 59 55 47 50 54 53 48 37 33 25 24 24 25 21 18 18 18 20 23 26 31 37 43 48 49 46 45 45 47
Wind_Direction
268 267 272 282 291 296 300 294 296 299 299 289 288 289 296 299 300 300 290 298 291 285 282 279 281 285 289 292 296 297 297 297 298 299 302 302 303 305 307 311 312 309 305 303
256 263 280 279 278 294 295 297 299 298 298 293 295 291 296 302 299 300 300 310 309 291 285 280 282 284 287 290 292 293 294 296 297 299 301 303 305 307 307 310 313 309 307 305
251 267 281 278 280 286 292 297 303 297 296 292 301 298 298 306 306 285 296 323 317 300 283 277 280 284 285 288 289 291 292 293 295 298 301 302 304 305 305 311 313 311 311 310
259 263 271 271 272 279 291 299 297 298 297 293 298 292 289 304 284 286 277 322 319 305 292 282 279 281 285 286 287 289 291 292 295 298 300 300 300 302 305 312 315 313 313 310
266 269 272 274 277 281 289 294 292 289 289 293 291 264 293 281 280 316 279 319 313 302 292 281 279 283 284 284 285 288 289 291 294 296 296 296 298 302 308 313 314 312 312 311
262 264 266 271 273 279 281 284 286 284 284 271 279 232 252 273 287 310 279 311 310 304 302 287 284 288 291 288 287 287 289 291 292 294 294 296 298 303 308 313 313 313 314 313
262 263 267 269 269 269 270 268 294 298 267 241 268 255 269 283 299 305 306 301 307 301 310 288 291 294 293 290 287 287 288 289 291 292 293 294 300 304 310 313 314 315 314 315
257 264 267 266 260 259 257 236 204 233 233 281 281 255 280 275 291 304 305 294 306 316 314 294 290 301 299 293 288 287 287 287 289 289 289 295 300 307 313 314 315 315 316 313
248 262 273 269 264 248 240 225 234 243 266 299 267 274 275 284 298 291 292 295 311 310 312 315 292 299 291 292 288 285 283 282 283 286 290 296 302 311 312 313 314 314 312 310
252 262 275 273 257 238 233 242 215 209 257 264 270 277 268 288 298 280 299 296 311 311 311 307 303 305 292 288 284 281 280 280 282 286 293 297 307 310 311 312 312 311 311 311
248 246 263 264 252 247 233 231 232 234 230 204 275 271 290 291 285 293 292 302 309 314 312 306 306 305 295 289 284 281 279 279 283 288 294 302 307 309 311 311 311 311 312 312
246 237 246 258 260 258 242 249 252 229 233 231 240 269 276 274 284 296 299 302 308 309 306 304 301 296 292 291 282 279 277 279 282 289 295 303 306 309 310 310 313 313 314 316
240 232 246 258 257 251 247 251 250 247 244 235 204 255 273 271 284 298 300 302 304 302 302 297 294 294 291 288 279 276 277 281 283 288 297 302 306 307 309 312 316 318 318 317
254 246 236 238 250 234 241 259 263 255 236 239 237 252 278 273 286 298 300 301 299 298 296 296 293 293 289 284 279 277 278 279 282 291 298 302 304 308 312 317 319 320 319 316
243 238 243 247 256 258 259 262 258 254 259 228 257 253 272 281 295 302 298 299 297 294 292 290 287 286 282 278 276 274 273 277 286 294 298 301 306 312 317 321 323 321 318 316
245 247 252 255 258 258 256 263 259 262 262 261 263 265 276 285 293 294 296 294 295 290 284 284 283 281 280 277 273 271 273 281 289 295 298 304 313 320 323 327 325 321 319 319
256 254 253 252 256 258 259 258 257 261 260 259 256 274 292 290 292 297 297 292 284 285 283 285 284 282 279 274 270 269 274 283 290 295 301 310 321 325 327 329 328 324 321 321
257 258 253 249 250 227 256 263 263 267 272 267 267 276 284 291 296 292 290 289 292 287 280 283 282 281 277 270 266 269 275 285 290 297 306 317 326 329 332 332 331 327 324 323
247 251 246 234 237 249 264 254 256 258 272 273 271 278 284 287 290 283 290 294 290 288 282 277 277 276 269 264 263 267 278 284 290 302 314 326 330 333 335 335 334 330 327 327
249 247 239 240 240 243 252 271 268 270 269 274 273 277 282 280 269 299 300 301 302 299 293 285 282 272 263 258 260 268 275 280 293 306 322 328 332 336 338 338 336 332 330 329
248 236 231 238 244 248 256 259 263 238 263 284 281 275 268 266 281 286 301 304 305 303 295 289 281 263 253 254 259 268 271 281 295 309 323 330 334 338 339 339 338 336 333 331
245 229 234 237 246 254 252 248 236 276 296 283 282 282 283 278 284 292 297 298 298 298 293 286 268 254 250 254 261 262 268 282 296 310 324 332 338 343 341 340 340 338 335 334
234 235 238 230 243 261 264 271 278 287 283 286 278 279 281 277 274 283 291 294 294 289 285 279 255 255 250 255 256 256 266 281 298 312 326 331 339 345 343 339 340 339 336 336
243 248 239 247 250 263 275 280 281 276 275 281 286 279 277 272 269 281 285 286 286 280 280 257 254 248 249 251 247 252 268 285 303 319 328 333 340 344 345 339 337 340 337 337
254 250 248 247 260 264 266 270 274 278 276 278 278 281 273 267 272 278 282 280 276 270 269 247 241 238 243 244 242 254 273 292 312 323 330 336 342 345 346 340 337 340 339 340
244 246 242 246 265 268 273 284 279 276 279 284 274 284 275 269 269 272 278 272 270 267 257 240 227 229 235 237 243 258 279 300 315 326 331 339 344 346 345 341 340 340 341 340
Height
3139 3139 3137 3138 3138 3136 3133 3131 3127 3124 3123 3114 3111 3104 3105 3106 3102 3097 3095 3092 3088 3086 3085 3082 3081 3079 3077 3077 3076 3073 3071 3069 3067 3065 3064 3063 3061 3059 3055 3052 3047 3044 3040 3035
3135 3132 3134 3132 3132 3130 3128 3124 3120 3117 3114 3108 3102 3091 3095 3096 3094 3092 3088 3084 3082 3079 3078 3076 3074 3071 3070 3069 3067 3065 3064 3062 3059 3056 3053 3050 3048 3047 3044 3040 3037 3032 3027 3024
3128 3129 3128 3127 3126 3123 3122 3118 3115 3112 3107 3102 3093 3075 3080 3085 3085 3085 3082 3079 3076 3073 3071 3068 3067 3065 3063 3062 3060 3057 3055 3052 3050 3047 3044 3041 3038 3035 3031 3028 3024 3019 3014 3010
3123 3123 3121 3120 3118 3118 3114 3114 3109 3106 3103 3096 3096 3065 3067 3072 3075 3077 3075 3073 3069 3066 3064 3061 3059 3057 3056 3054 3051 3049 3046 3043 3040 3038 3035 3031 3028 3024 3021 3015 3010 3007 3002 2998
3117 3114 3114 3113 3112 3112 3109 3107 3104 3100 3097 3089 3083 3079 3054 3061 3064 3068 3066 3064 3060 3058 3055 3052 3050 3049 3048 3045 3042 3040 3037 3035 3033 3030 3026 3023 3019 3013 3008 3004 2999 2994 2990 2984
3110 3108 3106 3106 3106 3105 3103 3102 3099 3094 3093 3083 3069 3069 3044 3051 3054 3057 3058 3057 3053 3051 3047 3043 3042 3041 3040 3037 3033 3031 3029 3026 3024 3021 3017 3013 3008 3003 2999 2994 2988 2983 2977 2971
3101 3099 3098 3099 3099 3097 3097 3098 3097 3094 3090 3073 3064 3059 3032 3043 3046 3047 3046 3045 3044 3042 3039 3037 3036 3033 3030 3027 3024 3022 3020 3017 3015 3012 3008 3004 2999 2994 2987 2980 2973 2967 2961 2955
3093 3088 3093 3088 3090 3089 3087 3090 3090 3095 3089 3066 3061 3040 3025 3033 3037 3038 3036 3035 3032 3032 3030 3029 3026 3023 3020 3017 3014 3011 3009 3007 3005 3002 2999 2995 2989 2982 2975 2969 2962 2955 2948 2943
3085 3079 3080 3081 3080 3083 3080 3079 3081 3081 3076 3072 3045 3022 3019 3026 3029 3029 3027 3025 3023 3021 3019 3018 3017 3014 3011 3007 3005 3003 3001 2998 2995 2992 2989 2984 2978 2972 2965 2958 2951 2944 2939 2932
3077 3076 3072 3072 3070 3071 3071 3072 3074 3077 3078 3077 3032 3015 3009 3016 3017 3020 3019 3015 3014 3012 3009 3006 3003 3002 3000 2999 2995 2993 2992 2990 2986 2982 2977 2972 2967 2960 2953 2947 2941 2934 2927 2918
3068 3071 3067 3060 3056 3055 3063 3062 3063 3065 3060 3056 3051 2997 3002 3006 3008 3011 3011 3006 3003 3001 2999 2995 2991 2989 2988 2987 2986 2984 2981 2978 2975 2971 2967 2961 2955 2950 2943 2937 2930 2921 2912 2903
3060 3061 3058 3051 3048 3051 3054 3053 3052 3050 3045 3040 3041 2997 2991 2994 3001 3001 2999 2996 2993 2990 2987 2985 2982 2977 2977 2976 2975 2972 2969 2966 2963 2961 2957 2951 2945 2938 2932 2925 2917 2909 2898 2888
3051 3049 3048 3041 3039 3038 3038 3037 3036 3032 3030 3019 3035 2977 2988 2990 2989 2991 2986 2986 2983 2979 2976 2974 2970 2966 2965 2963 2962 2960 2957 2955 2952 2948 2944 2940 2933 2926 2919 2911 2904 2895 2884 2874
3038 3035 3026 3023 3020 3023 3025 3024 3022 3018 3011 3009 2989 2980 2952 2983 2981 2978 2977 2973 2971 2968 2964 2961 2958 2956 2953 2951 2950 2948 2946 2943 2941 2938 2933 2927 2921 2914 2907 2900 2890 2879 2871 2863
3023 3015 3012 3009 3005 3013 3011 3010 3005 2999 2990 2994 2964 2980 2943 2969 2968 2964 2965 2961 2957 2954 2952 2949 2947 2945 2942 2939 2938 2937 2937 2936 2935 2931 2924 2918 2911 2904 2895 2886 2876 2868 2859 2850
3009 3001 3005 2997 2995 3000 3000 2983 2993 2982 2974 2973 2969 2952 2949 2958 2960 2955 2954 2951 2947 2943 2940 2938 2935 2933 2933 2934 2932 2933 2932 2930 2927 2923 2919 2913 2906 2896 2885 2874 2867 2858 2848 2836
2997 2995 2993 2982 2991 2989 2990 2947 2968 2962 2961 2959 2953 2925 2945 2946 2946 2943 2941 2937 2935 2932 2928 2927 2926 2925 2924 2924 2926 2926 2924 2922 2918 2915 2911 2905 2899 2890 2880 2868 2858 2847 2836 2825
2982 2982 2983 2976 2980 2970 2932 2952 2953 2955 2940 2942 2937 2933 2935 2935 2931 2926 2929 2925 2922 2920 2918 2917 2916 2915 2915 2915 2916 2917 2916 2915 2912 2908 2903 2897 2889 2881 2871 2859 2845 2835 2825 2814
2967 2966 2965 2964 2955 2945 2942 2925 2935 2938 2924 2914 2927 2923 2922 2924 2921 2913 2917 2916 2913 2910 2908 2907 2906 2904 2903 2904 2905 2906 2908 2906 2904 2900 2896 2891 2882 2873 2862 2849 2835 2824 2816 2805
2946 2950 2952 2950 2938 2930 2911 2923 2934 2936 2917 2877 2914 2909 2912 2913 2910 2905 2906 2903 2902 2899 2897 2895 2894 2893 2893 2894 2896 2897 2897 2896 2894 2891 2888 2881 2874 2864 2853 2839 2827 2815 2805 2795
2931 2930 2924 2922 2913 2906 2912 2918 2923 2925 2867 2895 2897 2896 2901 2898 2898 2897 2893 2890 2888 2887 2886 2884 2882 2881 2882 2884 2885 2886 2886 2885 2884 2881 2878 2871 2863 2854 2843 2832 2819 2807 2798 2788
2908 2910 2910 2908 2903 2897 2895 2905 2905 2878 2883 2888 2885 2886 2887 2889 2886 2884 2883 2880 2877 2875 2875 2872 2869 2871 2871 2873 2873 2874 2875 2876 2875 2870 2866 2861 2851 2843 2835 2824 2813 2800 2791 2781
2884 2876 2876 2879 2868 2877 2882 2877 2873 2873 2873 2872 2872 2876 2877 2875 2873 2874 2872 2869 2865 2863 2862 2860 2860 2861 2863 2863 2865 2867 2866 2865 2863 2861 2855 2851 2843 2835 2826 2818 2807 2795 2783 2773
2857 2862 2858 2861 2854 2855 2860 2859 2858 2857 2854 2860 2859 2862 2863 2862 2861 2859 2858 2855 2852 2850 2850 2848 2851 2853 2856 2858 2859 2860 2859 2857 2853 2851 2848 2843 2836 2827 2819 2810 2801 2789 2777 2767
2843 2845 2840 2834 2836 2840 2841 2836 2839 2841 2844 2844 2844 2846 2846 2848 2848 2845 2843 2841 2839 2836 2836 2837 2839 2845 2848 2851 2852 2854 2854 2851 2847 2843 2840 2834 2826 2819 2811 2803 2794 2782 2772 2761
2820 2821 2824 2809 2819 2821 2821 2823 2831 2828 2827 2829 2831 2830 2830 2830 2832 2831 2828 2826 2824 2823 2825 2827 2831 2836 2841 2844 2846 2847 2847 2846 2841 2837 2833 2827 2819 2813 2805 2798 2790 2778 2770 2759